Regional Weather Roundup
Issued by NWS Upton, NY

Current Version | Previous Version | Graphics & Text | Print | Product List | Glossary Off
Versions: 1 2 3 4 5 6 7 8 9 10 11 12 13 14 15 16 17 18 19 20 21 22 23 24 25 26 27

000
ASUS41 KOKX 220308
RWROKX

REGIONAL WEATHER ROUNDUP
NATIONAL WEATHER SERVICE NEW YORK NY
1000 PM EST TUE FEB 21 2017

NOTE: "FAIR" INDICATES FEW OR NO CLOUDS BELOW 12,000 FEET WITH NO
SIGNIFICANT WEATHER AND/OR OBSTRUCTIONS TO VISIBILITY.

NYZ071-072-176-178-NJZ106-104-220400-
NEW YORK CITY METRO AREA

CITY           SKY/WX    TMP DP  RH WIND       PRES   REMARKS
Central Park   CLOUDY    43  32  65 MISG      30.19F
Wall St Helipt NOT AVBL
LaGuardia APRT CLOUDY    44  32  62 SW12      30.17F
Kennedy INTL   CLOUDY    42  38  85 SW12      30.20F
Breezy Point     N/A     39 N/A N/A SW6         N/A  WCI  35
Newark/Liberty CLOUDY    42  32  67 S10       30.18F
Teterboro      NOT AVBL
$$

NYZ177-179-078>081-220400-
LONG ISLAND NEW YORK

CITY           SKY/WX    TMP DP  RH WIND       PRES   REMARKS
Jones Beach      N/A     41 N/A N/A SW5G10      N/A
Matinecock PT  NOT AVBL
Farmingdale    NOT AVBL
MacArthur/ISP  CLOUDY    40  35  83 SW7       30.18F
Shirley        NOT AVBL
Westhampton    NOT AVBL
Southampton    NOT AVBL
Bridgehampton  NOT AVBL
East Hampton     N/A     38  32  78 SW5       30.19F WCI  35
Montauk          N/A     41  35  79 SW5       30.20F
$$

NYZ052-065-067-220400-
HUDSON VALLEY

CITY           SKY/WX    TMP DP  RH WIND       PRES   REMARKS
White Plains   NOT AVBL
Newburgh       MOCLDY    41  32  70 CALM      30.15F
Montgomery     NOT AVBL
Poughkeepsie   NOT AVBL
Albany         CLOUDY    42  26  53 S12       30.09F
$$

NJZ001-105-106-008-010-013-015-019>022-104-220400-
NEW JERSEY

CITY           SKY/WX    TMP DP  RH WIND       PRES   REMARKS
Newark/Liberty CLOUDY    42  32  67 S10       30.18F
Teterboro      NOT AVBL
Caldwell       NOT AVBL
Somerville     NOT AVBL
Linden         NOT AVBL
Sussex         NOT AVBL
Andover          N/A     41  30  65 S3        30.14S
Trenton        NOT AVBL
Millville      NOT AVBL
Atlantic City  CLOUDY    43  35  73 S5        30.20S
Wrightstown    CLOUDY    38  32  79 SW3       30.16F
Toms River     NOT AVBL
Belmar         NOT AVBL
$$

PAZ047>061-062-071-220400-
EASTERN PENNSYLVANIA

CITY           SKY/WX    TMP DP  RH WIND       PRES   REMARKS
Philadelphia   MOCLDY    43  32  65 S5        30.19F
Allentown      NOT AVBL
Scranton       NOT AVBL
$$

CTZ002-004>006-009-010-012-RIZ004-006-007-MAZ004-011-015-220400-
SOUTHERN NEW ENGLAND
 IN CT

CITY           SKY/WX    TMP DP  RH WIND       PRES   REMARKS
Bradley INTL   MOCLDY    37  28  70 S9        30.15F WCI  30
Hartford       CLOUDY    37  29  72 S5        30.17F WCI  33
Danbury        NOT AVBL
Wtrbury/Oxford PTCLDY    36  27  69 CALM      30.16F
Bridgeport     CLEAR     39  34  81 CALM      30.18F
Meriden        PTCLDY    37  29  72 CALM      30.17F
New Haven      CLEAR     36  32  87 CALM      30.18F
Chester          N/A     37  32  81 CALM      30.17F
Groton         CLOUDY    38  33  82 SW3       30.19F
Wilimantic     MOCLDY    38  30  73 S3        30.18S

 IN RI

CITY           SKY/WX    TMP DP  RH WIND       PRES   REMARKS
Providence     CLOUDY    36  28  73 SW5       30.19S WCI  32
Block Island   CLOUDY    39  33  79 SW9       30.19F WCI  33
Westerly       CLOUDY    40  32  73 SW5       30.20S
 IN MA

CITY           SKY/WX    TMP DP  RH WIND       PRES   REMARKS
Boston         CLOUDY    38  28  67 S10       30.16F WCI  31
Worcester      PTCLDY    34  24  67 SW13      30.10F WCI  25
Westfield      PTCLDY    37  27  67 S9        30.14F WCI  30
Provincetown   CLOUDY    37  29  72 S9        30.18F WCI  30
Nantucket      CLOUDY    37  30  75 SW8       30.21F WCI  31
$$

ANZ330-335-338-340-345-350-353-355-220400-
COASTAL MARINE OBSERVATIONS


STATION/POSITION TIME  SKY/WX   TEMP    WIND        PRES    VSBY  WAVE
                                AIR SEA DIR/SP/G                  HT/PER
                 (UTC)          (F)     (DEG/KT/KT) (MB)    (MI)  (FT/S)
NY HARB ENTRANCE 0150            43 42  190/ 12/ 12 1022.3          2/ 3
20 S FIRE ISLAND 0250            43 43  190/ 10/ 12 1022.4          2/ 7
GREAT SOUTH BAY  NOT AVBL
23 SSW MONTAUK P 0150            43 46              1022.9          2/ 3
15 E BARNEGAT LI 0230               43                N/A           3/ 6
HUDSON CANYON    0150               49              1023.1          2/ 7
KINGS POINT      0242            42 39              1021.8
EXECUTION ROCKS  NOT AVBL
CENTRAL LI SOUND 0230            39     190/  4/  6   N/A           1
EASTERN LI SOUND NOT AVBL
ROBBINS REEF     0242            41     190/ 10/ 12 1022.3
$$


>>>>>>>>>>>>>>>>>>>>>>>>>>>> KEY <<<<<<<<<<<<<<<<<<<<<<<<<<<
>                                                          <
>     SKY/WX - Sky Condition/Present Weather               <
>     TMP    - Temperature in Fahrenheit                   <
>     DP     - Dew Point in Fahrenheit                     <
>     RH     - Relative Humidity in Percent                <
>     WIND   - Direction (from) and Speed in MPH           <
>     PRES   - Mean Sea Level Pressure (inches of Hg)      <
>     WCI    - Wind Chill Index                            <
>     VSB    - VISIBILITY IN MILES                         <
>     HX     - HEAT INDEX                                  <
>     TC     - TEMPERATURE IN CELSIUS                      <
>     VRB    - VARIABLE WIND DIRECTION                     <
>                                                          <
>>>>>>>>>>>>>>>>>>>>>>>>>>>> KEY <<<<<<<<<<<<<<<<<<<<<<<<<<<




USA.gov is the U.S. government's official web portal to all federal, state and local government web resources and services.